Tracking 23764 objects as of 17-Oct-2021
HD Live streaming from Space Station
objects crossing your sky now

ATLAS CENTAUR DEB

Track ATLAS CENTAUR DEB now!


NORAD ID: 25253
Int'l Code: 1978-068C
Perigee: 877.9 km
Apogee: 35,580.5 km
Inclination: 21.6 °
Period: 640.0 minutes
Semi major axis: 24600 km
RCS: 0.1092 m2 (medium)
Launch date: June 29, 1978
Source: United States (US)
Launch site: AIR FORCE EASTERN TEST RANGE (AFETR)

Note: This is SATELLITE DEBRIS
aabbcc
Your satellite tracking list
Your tracking list is empty




NASA's NSSDC Master Catalog

Two Line Element Set (TLE):
1 25253U 78068C   21287.59680487 -.00000088  00000-0  11756-2 0  9992
2 25253  21.5861 247.8899 7053330 178.0919 357.6705  2.25006629199537
Source of the keplerian elements: AFSPC